Location: ???? ???? ?????
(31.2680°N, 31.7283°E)
Time: 03:18:48
(UTC+00:00)

GEOS 3 Rocket - Pass Details

Date: 13 July 2020
Orbit: 771 x 848 km, 115.0° (Epoch: 11 August)

Event Time Altitude Azimuth Distance (km) Brightness Sun altitude
Rises 19:24:05 0° 30° (NNE) 3,411 7.1 -25.3°
Reaches altitude 10° 19:26:24 10° 30° (NNE) 2,473 6.3 -25.7°
Maximum altitude 19:31:49 82° 303° (WNW) 857 3.7 -26.4°
Enters shadow 19:33:49 40° 221° (SW) 1,215 4.4 -26.7°
